Regional Weather Roundup
Issued by NWS

Home | Current Version | Previous Version | Graphics & Text | Print | Product List | Glossary On
Versions: 1 2 3 4 5 6 7 8 9 10 11 12 13 14 15 16 17 18 19 20 21 22 23 24 25 26 27
000
ASUS45 KBOU 010507
RWRCO

WEATHER ROUNDUP FOR COLORADO
NATIONAL WEATHER SERVICE DENVER/BOULDER CO
1100 PM MDT SAT APR 30 2016

NOTE: "FAIR" INDICATES FEW OR NO CLOUDS BELOW 12000 FEET WITH NO
SIGNIFICANT WEATHER AND/OR OBSTRUCTIONS TO VISIBILITY.

COZ001>005-013-030-031-010600-
...NORTHWEST COLORADO...

CITY           SKY/WX    TMP DP  RH WIND       PRES   REMARKS
CRAIG          FAIR      37  22  54 E8        30.10R
HAYDEN         FAIR      36  18  48 E13       30.10R
MEEKER         FAIR      38  24  57 NE15G22   30.04R
MOUNT WERNER   NOT AVBL
STEAMBOAT SPGS FAIR      34  19  53 E12G24    30.09S WCI  25
WALDEN         FAIR      28  18  64 NE5       30.17R WCI  23
$$

COZ006>008-011-010600-
...WEST CENTRAL VALLEYS...

CITY           SKY/WX    TMP DP  RH WIND       PRES   REMARKS
GRAND JUNCTION FAIR      47  30  51 NW7       29.94S
MONTROSE       FAIR      41  30  65 S7        29.97S
EAGLE          MOCLDY    37  30  75 W6        30.09S
RIFLE          CLOUDY    43  34  70 NE6       30.01R
DELTA          NOT AVBL
NUCLA          NOT AVBL
$$

COZ017>023-064>068-010600-
...SOUTHWEST COLORADO...

CITY           SKY/WX    TMP DP  RH WIND       PRES   REMARKS
DURANGO        FAIR      35  30  82 N3        29.92R
CORTEZ         FAIR      36  32  85 E3        29.90S
PAGOSA SPRINGS FAIR      36  31  84 CALM      29.97R
TELLURIDE      FAIR      33  30  88 CALM      30.01R
WOLF CREEK PAS SNOW      21  21 100 NE18      30.09S VSB 1/4 WCI   6
$$

COZ009-010-012-014-032>034-037-058>063-010600-
...CENTRAL COLORADO...

CITY           SKY/WX    TMP DP  RH WIND       PRES   REMARKS
ASPEN          CLOUDY    36  29  75 NW5       30.02R
BUENA VISTA    CLOUDY    30  25  82 CALM      30.14S
COPPER MTN     NOT AVBL
BERTHOUD PASS  LGT SNOW   9   0  66 MISG      30.13R
COTTONWOOD PAS FLURRIES  27  23  86 E5        30.13S WCI  21
GUNNISON       FAIR      36  21  55 E16       30.02R
KREMMLING      FAIR      32  23  69 CALM      30.14R
LEADVILLE      LGT SNOW  20  20 100 S13       30.09R FOG     WCI   7
MONARCH PASS   CLOUDY    18  14  86 MISG      30.16R
SALIDA         CLOUDY    32  27  81 E8        30.21R WCI  25
SUNLIGHT       CLOUDY   N/A N/A N/A NE6       30.10R
WILKERSON PASS CLOUDY   N/A N/A N/A NE10      30.15R
$$

COZ069>075-010600-
...SAN LUIS VALLEY/SANGRE DE CRISTO MOUNTAINS...

CITY           SKY/WX    TMP DP  RH WIND       PRES   REMARKS
ALAMOSA        CLOUDY    33  26  75 SE8       30.03R WCI  26
LA VETA PASS   LGT SNOW  21  19  93 MISG      30.10S VSB 3/4
SAGUACHE       CLOUDY    36  23  60 NE7       30.03R
$$

COZ035-036-038>040-010600-
...NORTHERN COLORADO FRONT RANGE...

CITY           SKY/WX    TMP DP  RH WIND       PRES   REMARKS
DENVER INTL AP LGT SNOW  34  30  85 NW17      30.19R FOG     WCI  23
DMNS CITY PARK   N/A     35  32  92 N9G18     30.21R WCI  27
AURORA         FLURRIES  33  33 100 N16       30.20R WCI  22
FRONT RANGE AP NOT AVBL
ERIE MUNI ARPT CLOUDY    36  33  89 N12G17    30.22R
BOULDER MUN AP CLOUDY    36  34  93 N5        30.22R
CENTENNIAL     LGT SNOW  32  31  96 N14       30.19R FOG     WCI  22
BROOMFIELD     NOT AVBL
FORT COLLINS   FAIR      36  32  87 NW12      30.22S
LONGMONT       CLOUDY    38  34  83 N7        30.24R HAZE
$$

COZ041-046-047-076>085-087-088-010600-
...PIKES PEAK/PALMER DIVIDE AND SOUTHERN FOOTHILLS...

CITY           SKY/WX    TMP DP  RH WIND       PRES   REMARKS
COLO. SPRINGS  LGT SNOW  32  28  85 NW14      30.17R FOG     WCI  22
A. F. ACADEMY  FLURRIES  32  28  86 N17G29    30.15S WCI  21
SCHRIEVER AFB  NOT AVBL
ELLICOTT       NOT AVBL
FALCON         FLURRIES  30  26  84 N15G21    30.16R WCI  19
FORT CARSON    MOCLDY    35  28  75 N18G25    30.14R WCI  24
LIMON          CLOUDY    32  31  96 NW31      30.12R WCI  17
MONUMENT HILL  LGT SNOW  28  27  93 N18       30.17R WCI  16
TRINIDAD       CLOUDY    34  30  85 CALM      30.17R
$$

COZ042>045-048>051-090-091-010600-
...NORTHEAST COLORADO...

CITY           SKY/WX    TMP DP  RH WIND       PRES   REMARKS
GREELEY ARPT   MOCLDY    36  32  87 NW9       30.21R
AKRON          LGT SNOW  33  30  88 NW24      30.11R FOG     WCI  20
BURLINGTON     CLOUDY    35  32  88 N24G31    30.04R WCI  23
WRAY           NOT AVBL
STERLING       DRIZZLE   36  34  93 N17G24    30.12R
HOLYOKE        NOT AVBL
FORT MORGAN    CLOUDY    35  32  90 NW16G23   30.17R WCI  25
$$

COZ086-089-092>099-010600-
...SOUTHEAST COLORADO...

CITY           SKY/WX    TMP DP  RH WIND       PRES   REMARKS
PUEBLO         CLOUDY    41  29  62 N9        30.15R
LA JUNTA       FAIR      38  31  76 NW14      30.15R
LAMAR          CLOUDY    40  32  73 NW12      30.10R
SPRINGFIELD      N/A     36  31  82 NW20G29   30.09R
$$




USA.gov is the U.S. government's official web portal to all federal, state and local government web resources and services.